[[{"header":{"parameterUnit":"m.s-1","parameterCategory":1,"la1":30.2991,"la2":30.254,"lo1":-89.0895,"lo2":-89.0444,"dy":0.0017,"dx":0.0017,"nx":28,"ny":28,"refTime":"2023-11-21T03:00:00:Z","depth":0,"parameterNumber":2,"parameterNumberName":"U-component_of_WINDS"},"data":[0,0,0,0,0,0,0,0,0,0,0,0,0,0,0,0,0,0,0,0,0,0,0,0,0,0,0,0,0,0,0,0,0,0,0,0,0,0,0,0,0,0,0,0,0,0,0,0,0,0,0,0,0,0,0,0,0,0,-0.3166,-0.3168,0,-0.342,-0.3423,-0.3426,-0.3574,-0.3575,-0.3575,-0.3576,-0.3846,-0.3852,-0.3859,0,0,0,0,0,0,0,0,0,0,0,0,0,-0.2817,-0.2823,-0.3165,-0.3169,-0.3172,-0.342,-0.3423,-0.3427,-0.3574,-0.3575,-0.3575,-0.3576,-0.3843,-0.3851,-0.3859,0,0,0,0,0,0,0,0,0,0,0,0,0,-0.301,-0.2825,-0.3165,-0.3275,-0.3287,-0.3419,-0.3423,-0.3428,-0.3574,-0.3575,-0.3576,-0.3576,-0.3841,-0.385,-0.386,-0.3905,0,0,-0.3891,-0.3895,0,0,0,0,0,0,0,0,-0.2999,-0.3022,-0.3256,-0.3268,-0.3282,-0.3466,-0.3399,-0.3588,-0.3574,-0.3465,-0.3576,-0.3577,-0.3719,-0.3739,-0.3785,-0.3918,-0.3929,-0.3892,-0.3898,-0.3902,-0.3905,0,0,0,0,0,0,0,-0.2985,-0.3012,-0.3267,-0.3259,-0.3275,-0.3315,-0.3343,-0.3436,-0.3585,-0.3475,-0.3486,-0.3514,-0.3727,-0.3775,-0.3793,-0.3933,-0.3891,-0.39,-0.3906,-0.391,-0.4116,-0.4116,0,0,0,0,0,0,-0.2953,-0.3,-0.3259,-0.3274,-0.3139,-0.332,-0.3352,-0.3406,-0.3584,-0.3612,-0.3513,-0.352,-0.3758,-0.3781,-0.3803,-0.3868,-0.3902,-0.3911,-0.3917,-0.4117,-0.4116,-0.4116,0,0,0,0,0,0,-0.2945,-0.2974,-0.3248,-0.314,-0.3178,-0.3325,-0.3385,-0.3411,-0.346,-0.3613,-0.3641,-0.3535,-0.376,-0.3789,-0.3878,-0.3879,-0.3916,-0.3925,-0.4118,-0.4117,-0.4116,-0.3996,0,0,0,0,0,0,-0.2934,-0.2971,-0.2987,-0.3139,-0.3183,-0.3316,-0.3385,-0.3415,-0.3475,-0.3487,-0.3641,-0.3667,-0.3762,-0.3862,-0.3888,-0.3893,-0.3933,-0.4118,-0.4117,-0.4116,-0.4001,-0.3991,-0.3983,0,0,0,0,0,-0.2921,-0.2945,-0.2987,-0.3017,-0.3206,-0.3315,-0.3341,-0.3448,-0.3475,-0.3494,-0.3592,-0.3662,-0.3874,-0.387,-0.39,-0.3909,-0.4119,-0.4117,-0.4116,-0.4004,-0.3993,-0.3983,0,0,0,0,0,0,-0.2792,-0.2967,-0.3015,-0.3088,-0.3185,-0.334,-0.3367,-0.3432,-0.3526,-0.3533,-0.3665,-0.3698,-0.3775,-0.3852,-0.3844,-0.3962,-0.4004,-0.4009,-0.3909,-0.3899,-0.3891,-0.3871,-0.3941,0,0,0,0,0,-0.2771,-0.2842,-0.2993,-0.3043,-0.3089,-0.3219,-0.3271,-0.3344,-0.3452,-0.3495,-0.36,-0.3704,-0.3794,-0.3851,-0.3943,-0.4012,-0.4049,-0.4033,-0.4024,-0.4016,-0.4019,-0.4063,-0.4058,-0.4112,-0.4112,-0.4112,0,0,-0.2731,-0.2835,-0.2872,-0.3019,-0.3103,-0.3177,-0.3253,-0.3328,-0.3385,-0.3507,-0.3597,-0.3678,-0.3803,-0.3882,-0.3923,-0.3948,-0.4012,-0.4015,-0.4007,-0.4015,-0.4061,-0.4056,-0.4051,-0.4111,-0.4111,-0.4111,0,0,-0.2694,-0.2779,-0.283,-0.2912,-0.3037,-0.3123,-0.3135,-0.328,-0.3338,-0.3429,-0.3523,-0.3594,-0.3747,-0.3832,-0.3895,-0.389,-0.3959,-0.3917,-0.3872,-0.3913,-0.3908,-0.3905,-0.3904,-0.3902,-0.3919,-0.3919,-0.3919,0,-0.2628,-0.2739,-0.2849,-0.2917,-0.298,-0.3091,-0.3146,-0.3221,-0.3371,-0.3413,-0.3439,-0.3633,-0.3725,-0.3826,-0.3824,-0.3872,-0.3892,-0.39,-0.3899,-0.3897,-0.3896,-0.3897,-0.3896,-0.3913,-0.3914,-0.3914,-0.3915,0,-0.2653,-0.2729,-0.2756,-0.2893,-0.296,-0.3021,-0.3142,-0.3197,-0.3265,-0.3349,-0.3442,-0.3557,-0.3673,-0.3703,-0.3771,-0.3814,-0.3826,-0.3874,-0.3919,-0.3883,-0.3886,-0.3887,-0.3905,-0.3907,-0.3909,-0.391,0,0,-0.2542,-0.2738,-0.2746,-0.281,-0.2956,-0.3019,-0.3086,-0.3197,-0.3242,-0.3342,-0.3403,-0.353,-0.3574,-0.3646,-0.3725,-0.3761,-0.375,-0.3805,-0.381,-0.3791,-0.3806,-0.3769,-0.3768,-0.3796,-0.3797,-0.3797,-0.3796,0,-0.2527,-0.2649,-0.2749,-0.2836,-0.2908,-0.3015,-0.3074,-0.3172,-0.3253,-0.3329,-0.3421,-0.3508,-0.356,-0.3604,-0.3644,-0.3743,-0.3755,-0.3744,-0.3857,-0.386,-0.3822,-0.3769,-0.3731,-0.3724,-0.3798,-0.3798,-0.3798,0,-0.2525,-0.2617,-0.2708,-0.2847,-0.2881,-0.2932,-0.3042,-0.3113,-0.3227,-0.3284,-0.3362,-0.3444,-0.3524,-0.356,-0.3673,-0.3663,-0.3715,-0.3771,-0.3773,-0.3789,-0.3826,-0.3783,-0.3724,-0.3723,-0.3801,-0.3801,-0.38,0,-0.2435,-0.2582,-0.2656,-0.2708,-0.2871,-0.2904,-0.2975,-0.3089,-0.3149,-0.3247,-0.3288,-0.3394,-0.3453,-0.3535,-0.3645,-0.3661,-0.3746,-0.3792,-0.3797,-0.3794,-0.381,-0.3808,-0.3759,-0.3843,-0.3843,-0.3843,-0.3843,0,-0.2408,-0.246,-0.2618,-0.2663,-0.2726,-0.2843,-0.2903,-0.2983,-0.3084,-0.3149,-0.325,-0.331,-0.345,-0.3528,-0.3615,-0.3695,-0.3721,-0.3771,-0.3793,-0.3762,-0.3756,-0.3799,-0.3802,-0.3843,-0.3843,-0.3843,-0.3843,0,-0.2318,-0.2425,-0.2513,-0.2659,-0.2698,-0.2737,-0.2865,-0.2915,-0.3001,-0.3083,-0.3109,-0.3245,-0.3342,-0.3459,-0.3595,-0.3653,-0.3726,-0.3759,-0.3686,-0.3699,-0.3698,-0.3696,-0.3675,-0.3679,-0.3758,-0.3757,-0.3756,0,-0.2293,-0.2335,-0.2485,-0.2534,-0.26,-0.2679,-0.274,-0.2857,-0.2918,-0.3051,-0.3085,-0.3189,-0.3278,-0.3428,-0.3542,-0.3646,-0.3684,-0.3669,-0.37,-0.3668,-0.3685,-0.3681,-0.3686,-0.3661,-0.3659,-0.3658,-0.3657,0,-0.2238,-0.2289,-0.2371,-0.2472,-0.2541,-0.2628,-0.2719,-0.2755,-0.2892,-0.2955,-0.3053,-0.3122,-0.3259,-0.3362,-0.348,-0.3557,-0.3631,-0.3646,-0.3653,-0.3622,-0.3578,-0.3602,-0.3664,-0.3646,-0.3648,-0.3648,-0.3649,-0.3649,-0.2181,-0.2224,-0.2335,-0.2424,-0.2504,-0.2586,-0.264,-0.2732,-0.2815,-0.2933,-0.2999,-0.3095,-0.3211,-0.3377,-0.3451,-0.3531,-0.3557,-0.3567,-0.3569,-0.357,-0.3561,-0.3564,-0.3553,-0.3553,-0.3554,-0.3554,-0.3554,0,-0.2132,-0.2208,-0.2288,-0.2411,-0.2481,-0.254,-0.2645,-0.2701,-0.2783,-0.2883,-0.2967,-0.3081,-0.3181,-0.3302,-0.341,-0.3451,-0.3488,-0.3476,-0.3475,-0.3491,-0.3531,-0.3514,-0.3444,-0.3444,-0.3444,-0.3444,-0.3444,-0.3444,-0.2114,-0.2189,-0.2253,-0.237,-0.2448,-0.254,-0.2594,-0.2672,-0.2752,-0.2873,-0.2955,-0.3032,-0.3141,-0.3258,-0.3353,-0.3387,-0.3423,-0.34,-0.3444,-0.3479,-0.3488,-0.3497,-0.3482,-0.3407,-0.3407,-0.3398,-0.3398,-0.3398]},{"header":{"parameterUnit":"m.s-1","parameterCategory":1,"la1":30.2991,"la2":30.254,"lo1":-89.0895,"lo2":-89.0444,"dy":0.0017,"dx":0.0017,"nx":28,"ny":28,"refTime":"2023-11-21T03:00:00:Z","depth":0,"parameterNumber":3,"parameterNumberName":"V-component_of_WINDS"},"data":[0,0,0,0,0,0,0,0,0,0,0,0,0,0,0,0,0,0,0,0,0,0,0,0,0,0,0,0,0,0,0,0,0,0,0,0,0,0,0,0,0,0,0,0,0,0,0,0,0,0,0,0,0,0,0,0,0,0,6.2376,6.2379,0,6.2705,6.2709,6.2712,6.2821,6.282,6.2819,6.2817,6.3141,6.3151,6.3161,0,0,0,0,0,0,0,0,0,0,0,0,0,6.1827,6.1837,6.2375,6.2379,6.2384,6.2704,6.2709,6.2713,6.2822,6.282,6.2818,6.2817,6.3138,6.315,6.3162,0,0,0,0,0,0,0,0,0,0,0,0,0,6.2101,6.184,6.2375,6.2477,6.2489,6.2703,6.2709,6.2715,6.2822,6.282,6.2818,6.2816,6.3134,6.3149,6.3163,6.3296,0,0,6.3209,6.3215,0,0,0,0,0,0,0,0,6.2086,6.2121,6.2457,6.247,6.2484,6.272,6.2635,6.2909,6.2823,6.2695,6.2817,6.2815,6.3002,6.3028,6.3094,6.3311,6.3325,6.321,6.3219,6.3225,6.323,0,0,0,0,0,0,0,6.2066,6.2108,6.2505,6.2462,6.2479,6.2502,6.2538,6.2687,6.2855,6.2706,6.2715,6.2753,6.3009,6.3079,6.3102,6.333,6.321,6.3223,6.3232,6.3238,6.3671,6.3674,0,0,0,0,0,0,6.2032,6.2091,6.2495,6.2515,6.2276,6.2513,6.2554,6.2646,6.2854,6.2884,6.2754,6.2757,6.3055,6.3084,6.3114,6.3283,6.3225,6.3239,6.3248,6.3669,6.3672,6.3675,0,0,0,0,0,0,6.202,6.2067,6.2482,6.2306,6.2361,6.2525,6.2627,6.2654,6.2725,6.2891,6.292,6.2796,6.3054,6.3093,6.3251,6.3296,6.3246,6.3259,6.3666,6.367,6.3673,6.3622,0,0,0,0,0,0,6.2004,6.2062,6.2117,6.2307,6.237,6.2617,6.263,6.2662,6.2751,6.2758,6.2938,6.2966,6.3056,6.3228,6.3265,6.3315,6.3271,6.3662,6.3667,6.3672,6.362,6.3623,6.3626,0,0,0,0,0,6.1984,6.2087,6.212,6.2168,6.2443,6.262,6.2655,6.276,6.2755,6.281,6.2916,6.296,6.3284,6.3243,6.3286,6.3341,6.366,6.3666,6.3672,6.3619,6.3623,6.3626,0,0,0,0,0,0,6.1894,6.2114,6.2152,6.2321,6.2451,6.2638,6.2711,6.2761,6.2892,6.2892,6.3013,6.3052,6.3201,6.3286,6.3237,6.348,6.3474,6.3489,6.3419,6.3424,6.3427,6.3403,6.3283,0,0,0,0,0,6.1895,6.2025,6.2207,6.2338,6.2402,6.2545,6.2625,6.2696,6.2833,6.2888,6.3006,6.3135,6.3266,6.3349,6.3479,6.3632,6.3672,6.3691,6.3694,6.3696,6.3707,6.3793,6.3803,6.3694,6.3694,6.3694,0,0,6.1896,6.2032,6.2106,6.2323,6.2433,6.256,6.259,6.2724,6.2818,6.2907,6.3065,6.3155,6.3306,6.3463,6.3537,6.3538,6.3746,6.3703,6.3703,6.3714,6.38,6.381,6.3819,6.3698,6.3697,6.3697,0,0,6.1964,6.2081,6.2203,6.2313,6.2479,6.2574,6.2602,6.2782,6.2847,6.3008,6.3077,6.3188,6.3412,6.3517,6.3599,6.3706,6.375,6.3744,6.3759,6.3842,6.385,6.3859,6.3896,6.3908,6.3754,6.3754,6.3754,0,6.1944,6.2144,6.2257,6.2389,6.2482,6.2572,6.2694,6.2793,6.2991,6.3051,6.305,6.3333,6.3441,6.3622,6.3648,6.3712,6.3746,6.3724,6.3841,6.385,6.3859,6.3896,6.391,6.3752,6.3753,6.3753,6.3753,0,6.2109,6.2246,6.2324,6.2518,6.2619,6.2744,6.2874,6.2962,6.3022,6.3114,6.3275,6.3408,6.3566,6.3614,6.3673,6.3803,6.3799,6.3818,6.3815,6.3866,6.3902,6.3917,6.375,6.3751,6.3751,6.3752,0,0,6.2131,6.2388,6.2414,6.2504,6.2694,6.28,6.2927,6.3086,6.3158,6.3291,6.3399,6.3586,6.3605,6.3698,6.3769,6.3841,6.3916,6.3852,6.3857,6.3858,6.4066,6.4051,6.4066,6.3946,6.3949,6.3952,6.4053,0,6.2223,6.2462,6.2568,6.2756,6.2882,6.2969,6.308,6.3206,6.3295,6.3412,6.3508,6.3639,6.3655,6.3712,6.3787,6.3891,6.3959,6.3885,6.4044,6.4049,6.4005,6.4085,6.407,6.4159,6.4068,6.4071,6.4073,0,6.2363,6.2502,6.2704,6.2879,6.2936,6.3035,6.3188,6.33,6.3443,6.3503,6.3607,6.3675,6.3808,6.3795,6.3978,6.3925,6.3996,6.4056,6.4062,6.4081,6.4064,6.4105,6.419,6.4203,6.4096,6.4094,6.4093,0,6.2358,6.2594,6.2746,6.282,6.3028,6.3095,6.3183,6.3325,6.3414,6.3546,6.3604,6.3748,6.3826,6.3934,6.4037,6.4018,6.4209,6.4205,6.4259,6.4257,6.4296,6.4292,6.4393,6.4341,6.4341,6.4341,6.434,0,6.2451,6.2571,6.2747,6.284,6.2976,6.3095,6.3224,6.3318,6.3444,6.3553,6.3634,6.3734,6.3865,6.398,6.406,6.4199,6.4233,6.4282,6.4302,6.4276,6.4269,6.4324,6.432,6.4344,6.4344,6.4343,6.4342,0,6.2468,6.2592,6.2763,6.2947,6.2996,6.3087,6.3243,6.3334,6.3427,6.3565,6.3603,6.3748,6.3888,6.4002,6.4183,6.4237,6.4381,6.4404,6.4335,6.4345,6.4393,6.4387,6.4533,6.4557,6.4488,6.4488,6.4489,0,6.2519,6.2615,6.281,6.2892,6.2981,6.3111,6.3203,6.3322,6.3413,6.3583,6.3653,6.3799,6.3923,6.4141,6.4259,6.4398,6.4424,6.4466,6.4445,6.4415,6.4424,6.4418,6.4427,6.4467,6.4468,6.4468,6.4468,0,6.2597,6.2653,6.2786,6.2939,6.3047,6.3172,6.3299,6.3359,6.35,6.3598,6.3745,6.3841,6.4028,6.4171,6.4323,6.4409,6.4461,6.4474,6.4494,6.4467,6.4423,6.4447,6.434,6.447,6.447,6.4469,6.4469,6.4469,6.2633,6.2721,6.2873,6.3017,6.3126,6.3242,6.3337,6.3444,6.357,6.3736,6.3796,6.3946,6.4083,6.4293,6.4379,6.4495,6.45,6.4528,6.4536,6.4541,6.4537,6.4405,6.4522,6.4522,6.4523,6.4523,6.4523,0,6.2714,6.2816,6.2948,6.3125,6.3237,6.3281,6.3423,6.3512,6.3645,6.3772,6.3893,6.406,6.4199,6.4328,6.4473,6.454,6.4567,6.4573,6.457,6.4588,6.4525,6.4494,6.4549,6.4549,6.4549,6.4549,6.4549,6.4549,6.277,6.2922,6.2996,6.3201,6.3302,6.3454,6.3531,6.3637,6.3739,6.3924,6.4042,6.4127,6.4254,6.4408,6.4536,6.457,6.4618,6.4619,6.4658,6.4597,6.4593,6.4589,6.456,6.4628,6.4629,6.4712,6.4713,6.4714]}]]